www.pogodaiklimat.ru

Погода и климат >> Архив погоды >> Гондурас >> Тегусигальпа


АРХИВ ПОГОДЫ в Тегусигальпе

Время (UTC), дата Ветер
(напр.,м/с)
 
Видим.   Явления Облачность Т
(С)
Тd
(С)
f
(%)
Тe
(С)
Тes
(С)
Комфортность P
(гПа)
Po
(гПа)
Тmin
(С)
Tmax
(С)
R
(мм)
R24
(мм)
S
(см)
12 10.08 С 2 8000 м дымка {туман} 5/5 240 м
[Sc Ci fib]
+17.5 +16.8 96 +18 +18 по сезону 1019.1 904.4 +17.5 +30.2
15 10.08 СВ 3 15 км мгла {туман} 6/6 900 м
[Cu hum Cs]
+22.1 +16.0 68 +26 +30 душно 1018.5 906.5
18 10.08 15 км мгла {туман} ясно +27.5 +14.7 46 1015.1 904.5 +17.5 +27.5
21 10.08 СВ 6 15 км мгла {туман} 5/4 960 м
[Cu hum Ci fib]
+27.3 +14.3 45 +30 +32 душно 1013.4 902.9
00 11.08 В 4 15 км мгла {туман} 4/3 960 м
[Cu med, cong Ci fib]
+25.9 +14.0 48 +28 +28 жарко 1014.0 902.9 +18.2 +28.0
03 11.08 В 1 10 км зарница {туман} 3/3 840 м
[Cb cap Ac trans Ci fib]
+23.2 +14.9 60 +27 +27 душно 1016.8 904.4
06 11.08 штиль 0 10 км зарница {туман} 3/3 840 м
[Cb cap Ac trans Ci fib]
+18.9 +14.9 78 +20 +20 по сезону 1019.3 905.1 +17.5 +28.0
09 11.08 штиль 0 10 км мгла {туман} 3/3 <50 м
[Sc]
+17.3 +15.2 87 +17 +17 прохладно 1018.9 904.1
12 11.08 штиль 0 10 км мгла {туман} 8/3 840 м
[Sc Ac trans Ci fib]
+16.7 +15.9 95 +17 +17 по сезону 1019.7 904.6 +17.0 +28.0
15 11.08 С 4 10 км мгла {туман} 6/6 900 м
[Cu hum Ci fib]
+24.0 +15.7 60 +27 +30 жарко 1018.0 900.5
18 11.08 В 5 20 км мгла {туман} 6/6 960 м
[Cu hum Ac trans Ci fib]
+25.8 +14.7 50 +28 +33 жарко 1016.1 904.8 +17.0 +26.0
21 11.08 СВ 5 20 км мгла {туман} 6/5 900 м
[Cu med, cong Ci fib]
+29.3 +15.7 44 +32 +35 душно 1011.9 902.2
00 12.08 СВ 3 15 км мгла {туман} 5/4 900 м
[Cu hum Ac trans Ci fib]
+25.6 +14.7 51 +28 +28 жарко 1014.0 902.8 +18.0 +29.3
03 12.08 штиль 0 10 км мгла {туман} 4/3 840 м
[Sc Ci fib]
+21.8 +14.5 63 +25 +25 комфорт 1017.2 904.4
06 12.08 СЗ 1 10 км мгла {туман} 4/3 840 м
[Sc Ci fib]
+21.0 +15.1 69 +25 +25 комфорт 1017.9 904.6 +20.6 +29.3
09 12.08 ЮЗ 1 10 км мгла {туман} 6/4 840 м
[Sc Ac trans Ci fib]
+17.1 +15.6 91 +18 +18 по сезону 1018.3 903.5
15 12.08 С 4 12 км мгла {туман} 9/3 840 м
[Sc diur, vesp Ac trans Cs]
+22.6 +15.6 65 +27 +30 душно 1018.0 905.3
18 12.08 СВ 5 12 км мгла {туман} 9/3 960 м
[Cu hum Cs]
+26.1 +13.7 46 +28 +35 жарко 1015.0 903.9 +17.1 +26.1
21 12.08 В 5 12 км мгла {туман} 6/3 960 м
[Cu hum Ci fib]
+29.5 +12.0 34 +30 +34 жарко 1011.5 901.9
00 13.08 В 4 12 км мгла {туман} 5/1 900 м
[Sc diur, vesp Ac trans Ci fib]
+26.4 +13.1 44 +28 +28 жарко 1012.7 902.0 +17.1 +29.5
03 13.08 СВ 3 10 км мгла {туман} 5/4 900 м
[Sc Ac trans Ci fib]
+22.8 +13.1 54 +26 +26 жарко 1016.1 903.6
06 13.08 штиль 0 10 км мгла {туман} 5/4 900 м
[Sc Ci fib]
+18.0 +13.1 73 +18 +18 прохладно 1018.1 903.7 +18.0 +29.5
09 13.08 СВ 3 10 км мгла {туман} 6/5 840 м
[Sc Ac trans Ci fib]
+19.2 +16.1 82 +21 +21 комфорт 1016.4 902.6
12 13.08 С 5 10 км мгла {туман} 8/3 300 м
[St Cs]
+18.2 +15.6 85 +18 +18 по сезону 1017.3 903.1 +28.0 +29.5
15 13.08 С 5 10 км мгла {туман} 5/5 600 м
[Cu Sc As op Cs]
+22.5 +15.1 63 +26 +29 жарко 1015.8 903.3
18 13.08 В 7 12 км мгла {туман} 5/5 960 м
[Cu hum Ci fib]
+27.6 +14.8 46 +30 +33 жарко 1013.4 903.0 +18.2 +27.6
21 13.08 СВ 5 12 км мгла {туман} 5/4 960 м
[Cu Sc Ac trans Ci sp]
+29.6 +11.9 34 +30 +33 жарко 1011.2 901.6
00 14.08 В 4 10 км мгла {туман} 3/1 960 м
[Cu hum Ac lent]
+26.7 +11.9 40 +28 +28 жарко 1012.7 902.0 +18.0 +31.5
03 14.08 ЮВ 2 10 км мгла {туман} 6/5 900 м
[Sc Ac trans]
+22.4 +13.6 57 +25 +25 комфорт 1017.2 904.5
06 14.08 З 3 10 км мгла {туман} 8/6 900 м
[Sc Ac trans]
+20.8 +13.9 65 +24 +24 комфорт 1018.1 904.8 +18.0 +31.5
09 14.08 штиль 0 10 км мгла {туман} 6/3 840 м
[Sc Ac trans]
+18.6 +14.9 79 +19 +19 по сезону 1017.8 903.7
12 14.08 штиль 0 10 км мгла {туман} 8/6 420 м
[Sc Ac trans Ci fib]
+19.1 +16.9 87 +21 +21 комфорт 1017.7 903.8 +18.6 +31.5
18 14.08 СВ 5 10 км мгла {туман} 8/6 900 м
[Cu hum Ac trans Ci fib]
+27.0 +15.3 49 +30 +33 душно 1014.5 903.7 +18.6 +28.0
21 14.08 СВ 6 10 км мгла {туман} 6/5 900 м
[Cu med, cong Ac trans Ci fib]
+29.5 +15.6 43 +32 +34 душно 1011.5 903.7
00 15.08 СВ 4 10 км 6/0 600 м
[Ac As]
+32.6 +18.6 44 +32 +32 жарко 1012.8 902.0 +18.6 +32.6
03 15.08 СВ 1 10 км зарница {туман} 4/4 800 м
[Cu med, cong Ac As]
+22.9 +17.2 70 +28 +28 душно 1016.5 904.0
06 15.08 СВ 2 10 км зарница {туман} 4/4 800 м
[Cb cap Cs]
+21.8 +16.6 72 +26 +26 душно 1017.5 904.6 +18.6 +30.2
09 15.08 С 3 10 км мгла {туман} 6/6 840 м
[St As op Cs]
+20.0 +17.4 85 +23 +23 комфорт 1017.5 904.0
12 15.08 С 4 7000 м осадки на расстоянии {туман} 9/9 240 м
[Sc]
+19.8 +17.8 88 +22 +22 комфорт 1017.8 904.1 +19.8 +30.2
15 15.08 С 3 10 км мгла {туман} 9/9 800 м
[Sc diur, vesp Ac trans Ci fib]
+21.5 +18.5 83 +26 +27 душно 1018.5 905.4 0.0
18 15.08 В 2 15 км мгла {туман} 9/5 960 м
[Cu med, cong Cs]
+26.9 +15.5 50 +30 +39 душно 1016.3 905.2 +15.5 +26.9 0.0
21 15.08 СВ 4 15 км мгла {туман} 9/4 960 м
[Cu med, cong Cs]
+28.0 +14.2 43 +30 +34 жарко 1013.6 903.3
03 16.08 Ю 2 10 км мгла {туман} 8/5 840 м
[Sc Ac trans Ci fib]
+19.8 +16.2 80 +23 +23 комфорт 1019.5 905.6
06 16.08 З 3 10 км мгла {туман} 4/3 840 м
[Sc Ac trans Ci fib]
+18.0 +15.6 86 +18 +18 прохладно 1020.4 905.8 +19.0 +29.0
09 16.08 штиль 0 10 км мгла {туман} 8/6 840 м
[Sc Ac trans Ci fib]
+17.3 +15.8 91 +17 +17 прохладно 1019.7 904.9
12 16.08 штиль 0 10 км мгла {туман} 8/6 840 м
[Sc Ac trans Ci fib]
+16.7 +15.9 95 +17 +17 по сезону 1019.9 904.8 +16.6 +29.0
15 16.08 ЮЗ 2 10 км в посл. час морось {туман} 9/6 900 м
[Cu Sc Ac trans]
+22.9 +16.6 68 +28 +31 душно 1018.8 906.1 0.0
18 16.08 В 4 12 км мгла {туман} 9/5 840 м
[Cu med, cong Ac trans Cs]
+24.7 +17.5 64 +29 +33 душно 1017.7 900.5 +16.6 +24.7 0.0
21 16.08 штиль 0 12 км мгла {туман} 9/5 840 м
[Cu med, cong Ac trans Cs]
+25.5 +16.6 58 +29 +33 душно 1015.0 903.5
00 17.08 штиль 0 10 км в посл. час морось {туман} 9/5 840 м
[Cb cap Ac trans Cs]
+22.5 +17.4 73 +27 +27 душно 1015.5 903.1 +16.6 +26.1 0.1
03 17.08 штиль 0 10 км гроза без осадков 9/5 800 м
[Cb cap Ac und Ci fib]
+19.3 +18.4 95 +21 +21 комфорт 1018.0 904.6 2

 

Местоположение метеостанции Тегусигальпа (Гондурас): широта 14.05 долгота -87.21 высота над уровнем моря 1007 м.

В архиве по умолчанию представлена погода в Тегусигальпе за последнюю неделю. Архивные данные за месяц целиком и за предыдущие месяцы, начиная с января 2011 года, Вы можете получить, выбрав интересующий диапазон дат из раскрывающегося списка и нажав кнопку "Ввод!".


*Определитесь, кто Вы:
робот инопланетянин человек

Внимание! Время в таблицах - всемирное. Для получения местного времени необходимо прибавить поправку, которая равна -6 ч.

Смотрите также архив погоды в соседних городах и на ближайших метеорологических станциях:

Погода в Чолутеке (Гондурас) (83 км)
Погода в Амапале (Гондурас) (99 км)
Погода в Ла-Эсперансе (Гондурас) (107 км)
Погода в Йоро (Гондурас) (125 км)
Погода в Чинандеге (Никарагуа) (158 км)
Погода в Катакамасе (Гондурас) (167 км)
Погода в Хинотеге (Никарагуа) (171 км)
Погода в Ла-Лиме (Гондурас) (174 км)
Погода в Санта-Роза-де-Копане (Гондурас) (188 км)
Погода в Теле (Гондурас) (188 км)

Пояснения к столбцам:

Ветер - указаны скорость ветра в м/с - средняя за 10 мин, порывы в срок и между сроками (в фигурных скобках) и направление, откуда дует ветер: С - северный, СВ - северо-восточный, В - восточный, ЮВ - юго-восточный, Ю - южный, ЮЗ - юго-западный, З - западный, СЗ - северо-западный.
Видимость - горизонтальная дальность видимости в метрах или километрах. При видимости от 1 до 10 км при отсутствии осадков обычно наблюдается дымка, при ухудшении видимости до 1 км и менее - туман. В сухую погоду видимость может ухудшаться дымом, пылью или мглою.
Явления - указаны атмосферные явления, наблюдавшиеся в срок или в последний час перед сроком; фигурными скобками обозначены явления, наблюдавшиеся между сроками (за 1-3 часа до срока); квадратными скобками обозначены град или гололедные отложения с указанием их диаметра в мм.
Облачность - указаны через наклонную черту общая и нижняя облачность в баллах и высота нижней границы облаков в метрах; квадратными скобками обозначены формы облаков: Ci - перистые, Cs - перисто-слоистые, Cc - перисто-кучевые, Ac - высококучевые, As - высокослоистые, Sc - слоисто-кучевые, Ns - слоисто-дождевые, Cu - кучевые, Cb - кучево-дождевые. Подробнее классификацию облаков см. в Атласе облаков (PDF).
T - Температура воздуха - температура, измеренная на высоте 2 м над землей.
Td - Температура точки росы - температура, при понижении до которой содержащийся в воздухе водяной пар достигнет насыщения.
f - Относительная влажность воздуха - влажноcть воздуха, измеренная на высоте 2 м над землей.
Te - Эффективная температура - температура, которую ощущает одетый по сезону человек в тени. Характеристика душности погоды. При расчете учитывается влияние влажности воздуха и скорости ветра на теплоощущения человека.
Tes - Эффективная температура на солнце - температура, которую ощущает человек, с поправкой на солнечный нагрев. Характеристика знойности погоды. Зависит от высоты солнца над горизонтом, облачности и скорости ветра. Ночью, в пасмурную погоду, а также при ветре 12 м/с и более поправка равна нулю.
P - Атмосферное давление - приведенное к уровню моря атмосферное давление.
Po - Атмосферное давление - измеренное на уровне метеостанции атмосферное давление.
Tmin - Минимальная температура - минимум температуры воздуха на высоте 2 м над землей.
Tmax - Максимальная температура - максимум температуры воздуха на высоте 2 м над землей.
R - Количество осадков - Количество выпавших осадков за период времени, мм. При наведении курсора мыши на число - период времени, за который выпало указанное количество осадков.
R24 - Количество осадков - Количество выпавших осадков за 24 часа, мм.
S - Снежный покров - Высота снежного покрова, см. При наведении курсора мыши на число - состояние снежного покрова и степень покрытия местности в баллах.